Home > Weather > Lódz > Past weeks

Flag for Poland Weather for the Past 2 Weeks in Lódz, Poland

Now
49 °F

Passing clouds.


Feels Like: 46 °F
Forecast: 40 / 48 °F
Wind: 7 mph from Southeast

Location: Lodz

Current Time: Feb 7, 2016 at 2:37:48 PM

Latest Report: Feb 7, 2016 at 1:00 PM


Visibility: 13 mi

Pressure: 29.80 "Hg

Humidity: 52%

Dew point: 32 °F

Location of LódzLocation

Historic Weather in Lódz — Graph

°F

Lódz Temperature Yesterday

Maximum temperature yesterday: 48 °F (at 2:00 PM)
Minimum temperature yesterday: 34 °F (at 4:00 AM)
Average temperature yesterday: 40 °F

High & Low Weather Summary for the Past Weeks

 TemperatureHumidityPressure
High54 °F (Feb 2, 1:00 PM)100% (Jan 26, 5:00 AM)30.46 "Hg (Jan 26, 5:00 AM)
Low15 °F (Jan 23, 6:00 PM)52% (Feb 7, 1:00 PM)29.61 "Hg (Jan 31, 3:00 AM)
Average38 °F81%30.08 "Hg
* Reported Jan 23 1:00 PM — Feb 7 1:00 PM, Lódz, Weather by CustomWeather, © 2016

Note: Actual official high and low records may vary slightly from our data, if they occured in-between our weather recording intervals... More about our weather records

Advertising

Lódz Weather History for the Previous 24 Hours

 ConditionsComfort  
Time TempWeatherWind HumidityBarometerVisibility
1:00 PM
Sun, Feb 7
49 °FPassing clouds.7 mph52%29.80 "Hg12 mi
12:00 PM47 °FPassing clouds.6 mph55%29.83 "Hg12 mi
11:00 AM46 °FPassing clouds.5 mph58%29.86 "Hg12 mi
10:00 AM42 °FPassing clouds.5 mph67%29.88 "Hg11 mi
9:00 AM38 °FPassing clouds.5 mph73%29.90 "Hg11 mi
8:00 AM35 °FPassing clouds.3 mph81%29.92 "Hg9 mi
7:00 AM34 °FPassing clouds.3 mph83%29.93 "Hg7 mi
6:00 AM34 °FClear.2 mph84%29.93 "Hg6 mi
5:00 AM35 °FPassing clouds.2 mph84%29.94 "Hg6 mi
9:00 PM
Sat, Feb 6
41 °FPassing clouds.2 mph82%30.03 "Hg6 mi
8:00 PM42 °FPassing clouds.3 mph83%30.06 "Hg6 mi
7:00 PM43 °FPassing clouds.3 mph81%30.07 "Hg8 mi
6:00 PM44 °FOvercast.3 mph80%30.08 "Hg7 mi
5:00 PM44 °FOvercast.2 mph78%30.09 "Hg6 mi
4:00 PM46 °FOvercast.3 mph73%30.09 "Hg8 mi
3:00 PM48 °FOvercast.3 mph69%30.10 "Hg12 mi
2:00 PM48 °FOvercast.5 mph70%30.11 "Hg12 mi
Weather by CustomWeather, © 2016

See weather overviewHow to use our weather pages